{"data":{"norad_id":52537,"epoch":"2026-05-24T23:49:43.535136Z","epoch_age_seconds":72886,"freshness":"FRESH","line1":"1 52537U 22051E   26144.99286499 -.00000762  00000+0 -29781-4 0  9992","line2":"2 52537  53.2137 146.3878 0001041  83.9075 276.2036 15.08844578222967","mean_motion":15.08844578,"eccentricity":0.0001041,"inclination_deg":53.2137,"raan_deg":146.3878,"arg_perigee_deg":83.9075,"mean_anomaly_deg":276.2036,"bstar":-2.9781e-5,"rev_number":22296,"period_min":95.437265109753,"perigee_km":539.00924599313,"apogee_km":540.44954577675,"semimajor_km":6917.8663958849,"source":"CELESTRAK","updated_at":"2026-05-25T13:38:17.161657Z"}}